STARLINK-5200, 54103

Orbit data source: Space-Track

STARLINK-5200, 54103 is a payload satellite owned by SpaceX/Seattle (US) in LEO that was launched on Thu, 20 Oct 2022 UTC via an FALCON 9 launch vehicle from the Air Force Eastern Test Range (AFETR). Payload-class satellites include a variety of spacecraft equipped with specific instruments for various scientific and technological missions. These include communications satellites like Starlink; space stations such as the ISS; scientific satellites like the Hubble; Earth observation satellites from companies like Planet Labs, Umbra, and HawkEye 360; GPS; miniature CubeSats for education and research; and military/defense satellites.

Loading next visibility...
Identifier
54103, 2022-136BE
Orbit
LEO
Country
Flag of USUS
Related business
Manufacturer
SpaceX/Seattle
Mission
Operational Commercial Communications
Bus & Motor
STARLINK, Unknown motor
Mass
305 kg wet, ~290 kg dry
Launch date (UTC)
2022-10-20 (4 years ago)
Launch vehicle
FALCON 9
Launch site
Air Force Eastern Test Range (AFETR)
Object type
Payload
Rocket body
Debris
Shape & HBR
Box + 1 Pan, 10.1 m
Radar Cross Section
13.562 m², Large (>1 m²)

Expand to show TLE details & history
Last TLE update: 2 days ago

TLE from 2 days ago
0 STARLINK-5200
1 54103U 22136BE  26171.40011008 -.00000553  00000-0 -16675-4 0  9992
2 54103  53.1593 212.7051 0001134  85.8156 274.2965 15.08830424202779
Epoch: 2026-06-20T09:36Z
TLE epoch observation values (Epoch: 2026-06-20T09:36:09.510Z)
Latitude
-0.00004°
Longitude
160.05016°
Altitude
540.605 km
Speed
7.593 km/s
True Right ascension
14h 10m 49s
True Declination
0° 00' 00"
Sunlit
Object was in full shadow at epoch
Visualization orbit readout
Latitude
Unknown
Longitude
Unknown
Altitude
Unknown
Speed
Unknown
Apparent Right ascension
Unknown
Apparent Declination
Unknown
Sunlit
N/A
Visualization observer readout
Local Sidereal Time
21:40:19
Azimuth
Unknown
Elevation
Unknown
Doppler factor
Unknown
Orbital elements
Apogee altitude
540.811 km
Perigee altitude
539.242 km
Semi-major axis
6,918.164 km
Eccentricity
0.00011
Inclination
53.1593°
RAAN
212.7051°
Arg. of periapsis
85.8156°
True anomaly
274.28354°
Mean anomaly
274.2965°
Eccentric anomaly
274.29002°
Mean motion
3.77187 °/min
Orbital period
95.44 mins
BSTAR
-0.000016675
Loading maneuver chart data...
Computing Atmospheric mass density...
Loading historical data...
Loading historical data...
Loading historical data...
Loading historical data...
Loading historical data...
Loading historical data...
Loading historical data...

Documentation

Showing up to 5 results
|